RH
95 98 98 99 97 95 95 94 94 94 93 87 83 81 80 82 80 73 66 57 49 49 55 57 52 48 53 56 58 59 57 56 57 57 55 52 48 48 49 47 46 44 43 42 40 39 37 37 36 35 34 34 34 33 33 33 33 33 34 34 35 36 36 37 38 38 37 36 35 34 33 31 28 24 21 19 17 16 15 15 15 15 14 15 13 15 16 17 27 40 52 47 44 66 76 76 72
80 86 91 96 95 94 94 95 95 94 96 95 93 90 85 82 78 72 62 57 55 56 61 60 50 47 52 56 58 57 53 51 53 54 53 51 49 48 48 46 46 44 43 42 40 39 37 36 35 35 34 34 33 33 33 32 32 32 32 33 33 33 34 35 35 35 35 34 33 31 29 26 23 20 18 17 16 15 15 15 15 15 15 14 14 15 15 22 39 49 57 48 43 57 66 75 77
64 70 76 83 87 91 94 95 95 95 98 97 96 93 86 82 76 67 59 59 61 63 64 59 54 54 55 55 55 53 50 50 52 52 52 51 50 49 48 47 46 45 44 42 40 38 37 36 35 34 34 33 33 32 31 31 32 31 31 32 31 32 32 32 33 32 32 30 28 26 24 22 19 18 17 16 16 16 15 15 15 15 15 15 14 14 17 32 48 58 61 49 48 58 67 81 83
50 55 60 65 70 77 83 87 90 91 93 92 93 91 84 83 76 66 64 66 67 69 67 64 63 59 56 57 56 54 53 53 53 52 52 52 51 51 49 48 46 44 42 40 39 37 36 35 35 34 33 32 31 31 30 30 29 29 30 29 29 29 29 29 29 28 27 25 23 22 20 19 18 17 16 16 16 16 16 16 16 15 15 14 14 16 23 38 54 68 67 55 62 74 77 83 80
39 42 45 50 54 58 63 67 72 75 74 76 83 85 83 83 79 72 69 67 68 72 72 72 71 64 61 62 61 60 58 56 55 54 54 54 53 52 50 47 44 41 38 37 36 34 34 32 32 30 30 29 28 28 27 26 26 26 25 25 26 24 25 25 24 23 22 21 20 20 19 18 17 17 16 16 16 16 16 16 16 16 15 15 15 17 25 38 57 74 74 71 83 89 80 71 68
34 35 36 38 40 44 46 48 51 51 49 52 60 68 72 75 74 72 70 69 71 74 76 75 72 69 68 66 64 62 59 58 56 54 55 55 53 49 44 41 38 35 33 31 31 30 29 28 27 27 26 25 24 24 23 22 22 21 21 22 21 21 22 21 21 21 20 20 19 19 18 17 17 17 17 17 16 17 17 17 16 17 17 16 16 18 26 40 63 82 86 91 99 92 72 59 64
30 31 31 32 33 35 36 37 37 36 35 35 40 47 53 56 57 59 61 62 62 61 65 66 65 66 65 64 64 60 57 56 53 51 50 48 44 39 34 31 30 28 27 26 26 25 24 24 24 23 23 22 22 21 21 20 20 20 19 20 20 21 20 20 20 19 19 19 18 18 18 18 18 18 18 18 18 19 18 17 17 21 21 17 17 18 32 56 79 90 95 102 99 81 61 58 71
28 27 28 29 29 29 30 30 30 29 29 28 30 33 39 42 39 41 46 46 45 45 49 53 53 51 49 52 54 52 51 50 46 42 38 36 33 30 28 26 25 25 24 24 23 23 23 22 21 21 21 20 20 20 20 19 19 19 19 20 20 20 20 20 19 19 20 18 19 18 18 20 20 20 21 20 22 21 19 19 22 27 22 18 18 21 49 79 91 93 97 95 78 63 56 63 75
24 24 25 25 26 26 26 26 26 26 26 26 27 29 32 35 33 32 34 35 35 35 38 42 39 34 34 37 37 38 37 36 34 31 28 28 27 26 26 24 24 23 23 22 22 21 21 21 20 20 20 20 20 20 20 19 20 20 20 20 19 20 20 19 19 20 19 18 19 18 21 22 20 22 22 23 25 22 20 26 32 31 22 20 19 31 70 93 96 94 88 72 56 57 59 63 71
21 21 22 23 24 24 23 24 24 24 24 24 25 27 28 31 30 28 28 28 29 29 31 34 32 28 27 28 28 29 28 27 27 26 26 25 24 24 24 23 22 22 22 21 21 21 20 20 20 20 20 20 20 20 20 20 20 20 20 20 20 20 19 20 20 19 19 20 19 19 21 21 22 23 23 27 26 22 27 36 36 29 21 20 28 54 90 101 100 88 71 58 52 61 64 65 68
19 19 20 21 22 22 22 23 23 23 23 23 23 24 25 26 25 25 25 25 26 26 28 30 30 28 25 25 26 27 25 25 25 25 25 23 23 22 22 22 21 21 21 20 20 20 20 20 20 20 20 20 20 20 20 20 20 20 20 20 21 20 20 20 20 21 21 20 20 20 20 23 27 24 27 31 28 31 38 40 31 25 22 25 44 78 101 103 98 81 66 61 52 56 63 67 64
19 19 19 19 20 20 21 21 22 22 23 23 22 23 23 23 23 23 23 24 26 25 25 27 27 25 23 24 24 25 24 23 24 23 23 22 22 21 21 21 20 21 20 21 21 21 21 21 21 20 21 20 21 21 21 21 21 21 21 21 21 21 21 20 21 22 20 20 20 20 23 29 28 27 33 32 36 43 40 37 30 27 26 35 63 88 100 100 95 79 70 63 47 48 63 66 57
20 20 19 20 20 20 21 21 22 23 24 24 22 21 21 21 22 22 22 22 24 23 23 24 24 23 22 23 23 23 23 23 22 22 22 21 21 21 21 21 21 21 21 22 21 22 22 21 22 21 21 21 21 22 22 22 21 22 21 22 21 21 21 21 22 20 20 20 18 23 28 29 28 32 34 37 54 48 32 36 32 30 34 52 81 96 99 99 95 81 69 61 45 46 62 62 49
22 21 21 21 22 22 23 23 24 25 25 24 22 21 21 21 21 22 21 20 20 20 21 22 22 22 22 23 23 23 23 22 21 21 21 21 22 22 22 22 22 22 22 22 22 23 22 22 23 22 22 22 22 22 22 22 22 23 22 22 22 22 21 21 21 19 21 18 19 26 26 26 30 33 35 46 60 44 33 39 29 32 51 72 89 99 103 98 96 80 67 58 42 45 60 56 42
23 22 22 23 24 24 25 26 26 26 26 25 24 22 22 22 22 22 22 20 19 19 21 22 22 22 23 23 24 25 23 22 21 22 22 22 23 23 24 23 23 23 23 23 23 24 23 23 23 23 23 23 24 23 23 23 23 23 23 23 22 22 21 21 20 19 19 18 20 22 23 26 28 35 39 45 54 47 46 42 31 38 54 65 67 83 102 99 96 79 62 50 36 49 59 50 39
24 23 23 24 25 26 27 27 26 26 26 25 23 21 22 23 23 24 25 23 20 20 21 22 23 24 23 23 25 26 24 22 23 23 23 24 24 24 24 24 24 24 24 24 24 24 24 24 24 24 24 24 24 23 24 23 23 23 22 22 22 22 21 20 20 19 19 18 17 18 21 20 26 42 41 49 65 58 48 40 35 39 42 44 46 76 105 102 95 75 50 38 39 60 59 44 34
23 23 24 25 26 27 27 27 27 26 25 24 22 21 22 23 24 26 27 25 22 22 22 23 24 24 24 24 26 27 25 23 24 25 24 25 25 25 25 25 25 25 25 25 25 25 25 25 25 25 24 25 24 24 24 23 24 23 22 22 21 21 20 20 19 18 18 17 18 17 16 18 30 42 46 72 86 60 44 40 34 39 43 42 50 78 97 88 78 59 41 44 58 69 51 32 27
23 23 24 25 25 26 26 26 25 25 24 23 22 22 23 25 25 26 28 27 25 23 22 22 23 24 24 24 25 26 26 24 24 26 26 26 26 26 26 26 26 26 26 25 26 25 25 25 25 25 25 25 24 24 24 23 23 22 22 21 20 21 19 19 18 18 18 17 18 14 19 25 27 38 59 85 86 57 39 39 45 56 58 52 58 67 66 58 58 56 56 68 71 61 37 21 23
21 22 23 24 24 25 24 24 24 23 23 22 22 23 24 25 25 26 28 28 25 23 22 22 23 24 24 23 25 26 27 26 25 26 26 26 26 26 26 26 26 26 26 26 26 26 26 26 25 25 25 25 24 24 23 23 23 21 22 20 20 20 18 19 17 18 18 17 17 16 30 35 34 48 67 84 79 50 38 60 76 70 59 49 48 47 47 57 72 83 85 81 63 42 27 18 21
20 21 22 22 23 23 22 22 22 22 22 22 23 23 24 25 25 26 27 27 24 22 23 24 24 25 24 24 25 26 27 26 25 25 25 26 26 27 26 26 26 26 26 26 26 26 26 25 25 25 24 24 23 23 23 22 22 21 21 19 20 18 18 18 16 19 16 18 16 18 44 53 54 62 71 91 73 38 54 85 76 53 48 47 50 56 67 87 98 101 90 69 47 30 21 18 21
18 19 20 20 20 21 21 20 20 21 22 22 23 24 25 25 25 25 25 25 23 22 23 24 25 25 25 26 26 25 25 25 25 25 26 27 27 27 27 26 27 26 26 26 25 25 25 25 24 24 24 23 23 23 22 22 21 20 20 19 19 18 19 17 17 18 14 20 13 22 60 62 64 80 83 84 56 45 77 81 62 59 65 68 77 87 95 104 104 96 80 55 35 20 15 21 24
16 17 18 18 19 19 19 19 20 21 22 22 23 24 24 24 23 22 24 24 23 22 23 25 25 26 27 26 25 23 24 25 26 26 26 26 26 26 26 26 26 26 26 25 25 25 24 24 24 23 23 23 22 22 21 21 20 20 19 18 19 18 18 17 17 17 15 19 14 27 58 57 71 88 66 46 51 78 94 83 84 92 90 89 93 98 101 103 99 88 75 55 35 17 9 18 26
15 16 17 17 17 18 18 18 19 20 21 21 21 21 21 22 22 22 24 24 23 22 23 24 24 26 26 25 23 23 24 25 26 26 25 25 26 26 26 26 26 26 25 25 24 24 24 23 23 22 22 22 22 22 21 21 20 19 20 19 19 18 18 17 16 17 16 17 17 23 35 48 67 66 44 47 77 100 98 96 102 100 99 98 97 100 101 101 95 84 77 61 37 20 10 13 22
14 15 15 16 16 16 17 18 18 19 20 20 19 20 20 21 22 22 23 22 21 21 21 22 23 24 25 24 23 23 24 25 25 25 25 25 25 25 25 25 25 25 25 24 24 23 24 23 22 22 22 22 22 22 21 20 20 20 21 20 20 19 19 18 17 18 18 18 20 20 23 36 46 55 71 86 98 103 100 102 102 103 103 91 91 100 100 100 99 95 94 80 49 28 16 10 16
11 12 13 13 14 14 15 15 16 17 18 17 17 18 19 20 19 20 21 21 20 20 20 21 22 23 25 24 22 23 23 24 24 24 25 25 25 25 25 25 25 25 24 24 24 23 23 23 22 22 22 23 24 23 22 21 21 21 22 22 22 21 21 21 20 20 20 22 22 23 26 25 38 75 100 98 99 105 103 101 101 106 102 89 91 99 100 101 100 100 103 95 65 36 20 9 11
10 10 10 11 11 12 13 13 15 15 15 15 16 16 17 17 18 19 19 20 20 19 19 20 20 21 24 24 22 22 22 23 24 25 25 24 25 25 25 25 24 24 24 24 24 24 24 24 24 23 23 25 25 25 24 23 22 23 24 25 25 24 25 26 26 25 24 26 25 27 30 31 59 96 103 95 98 102 103 102 100 101 100 98 98 99 101 100 100 99 100 101 75 45 28 12 7
10 11 11 10 11 12 12 12 13 13 13 14 14 15 16 16 17 18 19 19 18 18 18 18 19 21 23 24 22 21 22 23 24 25 25 24 24 25 25 25 25 25 26 26 26 27 27 26 27 27 26 26 27 27 27 26 25 26 29 30 28 29 33 34 33 31 28 29 29 30 33 50 87 103 100 100 100 101 104 99 99 101 99 100 100 101 102 98 101 99 97 103 92 73 51 19 5
14 15 14 13 14 14 14 15 15 14 15 15 16 16 17 17 18 21 21 18 16 18 18 17 18 20 23 24 23 21 22 23 25 25 25 25 26 27 28 27 28 29 28 29 30 31 31 30 30 30 29 29 29 30 31 32 32 33 36 36 33 36 41 41 40 36 33 33 33 34 35 59 97 103 99 103 101 103 102 97 101 98 91 97 102 100 101 98 100 100 98 101 101 101 80 33 6
19 19 17 17 17 18 19 19 18 19 19 17 19 21 21 22 22 24 23 18 18 21 20 17 17 21 26 28 26 23 23 25 27 28 28 29 31 32 32 31 33 33 32 33 34 35 35 34 33 33 33 33 33 34 37 41 42 41 44 43 42 44 46 45 44 38 37 37 35 37 36 59 96 101 97 101 102 102 99 99 104 96 86 95 103 99 100 99 98 101 99 101 98 103 97 53 14
22 22 21 22 22 24 25 24 22 23 24 22 25 26 26 27 27 28 27 21 21 24 26 22 20 24 29 33 33 27 26 29 32 33 33 34 37 37 37 39 40 37 36 37 37 37 38 38 38 38 39 41 42 44 47 50 51 50 50 50 48 49 47 45 44 39 39 38 35 37 34 60 99 101 97 101 101 101 98 101 105 102 96 97 102 98 99 98 99 102 99 102 99 99 105 77 33
25 25 26 26 27 29 29 26 25 28 29 29 31 33 34 34 30 30 30 28 28 32 35 32 26 27 33 39 42 36 33 35 37 38 39 40 43 42 43 46 46 42 41 42 42 42 42 43 43 46 50 53 55 57 59 59 58 56 54 53 50 49 46 44 43 39 39 36 35 35 32 66 104 100 98 101 100 101 98 101 102 101 100 99 101 98 98 99 101 102 90 91 97 97 105 95 60
29 29 31 30 29 33 32 28 31 35 34 34 36 40 42 38 34 35 36 35 40 43 40 37 34 32 36 43 46 43 41 44 46 45 44 45 48 48 48 55 55 49 48 51 52 50 50 52 55 60 64 67 68 67 67 64 60 58 54 52 49 46 44 42 41 39 38 35 35 34 32 67 104 100 100 102 99 101 99 100 100 99 100 98 100 100 99 99 99 91 72 77 96 99 103 104 86
35 32 33 35 35 38 37 35 42 43 38 39 43 50 53 45 39 40 42 41 45 50 46 43 44 40 40 46 50 50 51 52 50 50 51 51 55 55 56 66 72 67 67 68 66 65 65 69 73 75 75 75 75 72 68 64 59 56 52 50 47 44 42 40 39 37 37 35 34 34 29 58 98 101 100 102 99 100 101 101 100 100 101 99 100 100 99 99 98 85 66 76 96 101 103 104 99
36 40 44 46 51 53 46 42 49 51 44 44 51 61 61 50 46 47 47 47 51 60 62 57 50 46 51 55 56 58 58 57 56 56 62 66 71 74 73 82 93 92 89 85 82 82 83 84 84 83 81 78 76 72 66 61 56 52 49 46 44 42 40 38 38 36 36 35 33 34 28 44 88 105 99 100 101 100 100 102 101 100 100 100 100 101 102 100 100 94 83 88 97 101 105 100 98
49 67 71 61 58 56 49 41 44 51 49 48 55 70 73 56 54 61 57 54 56 69 87 90 72 57 58 62 68 70 64 65 72 73 77 85 93 97 96 97 103 103 99 97 95 94 92 91 90 87 84 79 74 68 62 57 53 49 46 44 42 40 39 37 38 36 36 35 32 33 29 32 65 97 103 101 101 101 100 99 99 100 101 102 101 101 103 98 97 99 98 99 94 92 97 93 94
84 83 76 69 66 67 67 55 50 59 66 73 74 84 92 70 58 72 79 76 67 68 93 111 101 80 66 67 78 79 69 72 84 85 85 98 106 104 103 102 102 102 101 101 101 97 94 93 91 88 82 74 68 63 59 55 51 48 46 44 41 39 38 37 37 37 35 35 32 31 31 27 36 66 93 104 103 99 100 99 98 100 100 101 101 99 99 97 96 98 101 102 87 80 91 91 93
101 84 81 87 92 92 85 69 63 68 75 94 98 95 101 85 70 76 87 92 81 75 91 106 108 98 83 79 82 82 81 80 81 84 89 102 109 104 102 101 99 102 102 100 98 94 92 90 87 82 75 68 64 60 56 52 49 48 46 45 43 39 38 37 37 37 36 35 34 31 30 30 26 33 58 87 101 101 100 99 98 100 99 100 101 98 96 97 98 99 99 103 94 82 93 100 97
105 97 94 96 103 103 94 83 75 64 62 86 102 103 108 104 95 79 67 73 75 81 98 106 106 100 94 93 83 80 93 91 77 80 92 102 108 104 104 102 93 98 104 101 98 92 87 85 81 74 68 64 61 57 53 51 48 47 46 45 44 42 39 38 37 37 37 36 36 34 30 29 29 25 29 48 71 89 98 102 99 98 100 100 101 99 98 98 99 102 99 101 103 92 93 103 96
105 100 93 94 103 104 101 92 74 61 69 89 100 108 113 111 107 90 70 65 62 67 87 107 113 105 99 95 83 81 96 96 82 78 87 102 108 102 104 103 92 96 105 102 100 92 83 80 75 67 64 60 57 55 52 51 49 47 46 45 45 44 42 39 38 37 37 37 36 36 34 30 29 28 26 26 33 49 70 92 100 99 101 103 101 99 99 101 100 102 101 98 103 101 96 100 98
99 94 95 100 102 101 102 92 72 70 86 97 102 107 109 105 104 102 96 83 66 60 68 90 110 114 108 97 87 87 90 90 85 76 76 92 104 102 104 104 94 96 103 103 102 95 83 77 70 63 60 59 56 54 53 51 49 47 46 47 46 45 45 43 41 38 37 38 37 37 37 34 32 29 28 26 24 25 34 58 81 90 99 104 102 100 99 101 101 100 101 99 100 103 100 96 103
101 94 94 97 99 100 98 87 78 83 93 102 105 102 98 101 105 109 108 96 84 73 61 70 97 112 112 101 89 84 80 80 81 75 71 79 95 105 107 104 95 91 96 100 104 101 93 85 77 70 65 61 57 54 53 51 49 49 47 48 49 47 46 45 44 42 39 37 38 38 37 36 35 33 31 28 26 25 22 30 46 61 80 97 101 101 100 100 100 101 99 100 100 100 101 95 98
102 94 90 91 95 94 86 78 77 82 95 109 105 91 91 102 108 109 107 102 100 91 71 66 89 110 113 104 91 82 80 79 78 78 74 75 88 102 107 106 101 96 95 97 102 103 102 99 94 88 83 75 66 58 55 52 50 49 49 49 51 50 48 47 45 44 42 39 38 37 37 37 37 36 35 32 29 27 25 23 26 33 47 70 89 99 102 101 100 102 99 99 101 99 101 99 97
103 102 101 98 95 91 81 76 74 74 89 103 93 80 90 107 111 105 103 103 102 99 87 75 82 102 110 105 97 92 93 92 88 85 80 79 85 94 101 104 103 102 101 101 102 102 101 101 101 99 96 91 83 71 61 56 53 50 49 49 50 51 51 50 48 45 44 42 40 38 37 37 37 37 36 35 33 30 28 26 23 24 27 36 60 85 100 102 100 102 101 98 101 101 100 99 100
105 108 109 104 102 101 88 77 75 71 77 90 89 83 90 105 111 102 94 94 93 94 98 88 77 84 97 103 102 100 99 101 101 94 88 90 93 94 98 101 101 102 104 106 105 104 102 103 103 101 97 93 91 87 76 66 61 56 54 51 49 49 51 52 52 50 46 44 42 41 40 38 37 38 38 36 35 34 32 30 27 26 27 25 33 59 85 98 100 100 101 100 99 100 101 98 101
101 104 108 108 105 105 96 88 87 77 67 79 96 96 88 94 107 101 87 85 83 79 89 93 79 73 85 98 105 106 100 96 98 94 87 91 98 101 100 102 103 103 106 108 106 105 106 106 107 104 100 95 92 92 88 80 73 68 63 59 54 50 49 51 53 53 52 49 46 43 42 41 39 38 39 38 37 36 33 32 32 29 30 29 25 35 60 83 94 100 101 101 101 99 100 99 98
101 101 103 106 105 103 99 98 99 89 78 86 101 94 78 85 105 106 94 89 80 70 80 97 96 90 89 87 90 96 97 95 95 93 89 87 94 101 99 99 103 105 106 108 108 108 107 107 109 107 104 103 99 95 93 89 83 78 74 68 63 57 52 49 50 52 53 53 50 48 45 43 42 40 39 40 39 39 37 33 33 31 30 32 30 27 38 58 75 89 98 100 102 102 100 101 99
100 103 102 105 107 105 101 99 100 97 95 102 106 90 71 78 100 109 103 91 79 72 80 95 102 105 103 92 83 81 82 88 93 96 96 93 93 100 101 98 99 102 104 105 107 108 107 108 109 107 107 108 106 102 99 97 93 88 83 78 72 67 60 53 50 48 49 51 51 51 49 46 44 43 40 40 39 39 40 38 34 33 31 31 33 30 29 39 50 63 81 94 100 104 102 103 104
90 94 95 98 102 104 103 102 101 99 102 108 106 94 76 73 90 109 109 96 89 87 82 78 80 93 106 107 100 89 80 81 87 97 101 96 94 98 100 97 94 97 101 102 102 102 104 107 107 107 108 109 109 106 104 103 100 96 92 87 81 77 72 64 57 51 47 48 49 49 50 49 47 46 43 41 41 39 39 39 37 35 34 32 33 33 30 31 35 40 51 68 85 98 103 103 105
83 84 86 89 91 92 92 94 93 92 98 102 100 94 85 80 91 107 109 99 93 91 85 78 74 80 95 106 109 102 94 85 81 92 103 99 93 94 94 91 88 91 94 93 94 96 99 103 106 108 109 110 110 108 106 105 104 102 98 93 87 84 81 76 70 62 54 49 47 47 47 48 47 46 46 44 42 41 39 39 39 37 36 34 32 34 33 30 30 32 33 41 56 75 92 98 101
84 87 89 88 87 88 87 85 83 81 84 86 85 82 80 83 90 101 106 100 92 88 87 87 85 79 79 91 103 107 105 95 78 77 91 98 96 93 90 83 82 86 86 81 83 88 92 97 102 106 108 109 109 108 107 107 107 106 104 100 94 89 86 83 79 74 68 60 53 49 46 46 46 45 45 45 44 43 42 39 39 38 36 36 34 32 34 33 30 30 30 31 35 45 64 82 92
82 88 88 86 91 96 95 90 86 81 78 79 81 78 74 75 76 82 90 90 88 88 85 84 86 83 75 78 90 99 106 106 91 75 74 84 94 98 95 85 80 84 84 78 75 78 83 89 96 100 103 105 107 108 107 107 107 107 107 105 101 98 93 89 86 82 78 73 67 61 54 48 46 45 43 43 43 42 43 41 40 40 38 36 36 33 32 33 32 31 30 30 31 31 37 52 68
70 74 77 82 90 94 91 87 83 79 75 78 86 87 85 83 78 75 77 77 78 78 76 73 73 75 76 74 76 86 97 104 104 92 78 74 82 93 99 94 85 83 84 81 76 75 77 81 87 93 97 102 106 108 106 105 106 106 107 106 104 103 100 97 94 91 87 82 78 74 69 62 55 50 46 43 42 41 40 41 40 40 40 37 36 35 33 32 32 31 31 30 30 30 29 33 43
63 63 67 74 79 79 77 74 72 72 69 73 82 85 87 89 90 91 91 89 85 80 78 76 69 64 66 66 66 70 78 83 88 91 87 80 77 82 91 95 91 85 81 79 78 80 82 83 86 87 88 95 103 106 105 104 106 106 105 104 102 102 103 101 99 98 95 91 86 82 78 75 69 62 56 51 47 44 40 39 39 38 39 39 37 36 35 33 32 31 31 30 29 29 29 30 32
58 59 59 61 63 63 63 62 64 68 65 64 70 73 73 76 84 95 101 100 96 91 91 92 84 71 61 57 58 62 66 66 64 66 71 75 75 76 80 86 90 89 84 79 77 81 86 87 86 86 88 96 104 108 106 103 102 104 103 101 101 101 100 99 96 95 97 95 92 89 84 82 79 73 67 62 57 53 48 43 40 37 36 37 38 37 36 34 33 32 31 31 30 28 28 30 31
48 49 49 50 50 50 51 51 54 59 60 59 62 64 64 65 70 79 87 89 88 87 89 91 89 84 75 64 56 57 64 66 62 58 56 58 63 65 67 70 76 80 81 79 77 80 87 86 82 83 90 99 106 109 109 104 99 100 103 103 104 104 101 99 96 93 93 92 90 90 88 86 84 81 76 71 66 61 57 53 48 44 39 36 35 35 35 35 34 33 32 32 31 30 28 27 28
37 38 39 40 41 41 42 43 42 44 46 48 52 55 57 61 64 67 70 72 72 74 77 79 81 85 85 77 63 55 57 61 65 65 59 56 56 57 59 60 62 65 67 68 69 71 77 78 76 79 85 91 97 105 108 106 102 101 103 104 105 106 105 103 100 96 92 89 87 85 85 84 84 85 82 79 76 70 65 61 56 53 49 44 40 36 34 33 33 34 33 32 32 31 30 29 27
30 31 31 33 34 34 34 35 36 35 35 36 38 41 46 51 54 56 57 58 60 64 67 69 71 72 74 74 71 63 56 54 58 62 60 57 56 57 60 62 62 62 61 61 60 60 60 62 64 67 70 73 77 84 90 92 94 96 98 101 101 102 103 102 100 99 94 89 86 82 81 80 79 81 81 81 81 79 74 69 63 58 55 52 49 44 39 35 33 32 32 32 32 31 30 30 29
33 32 30 30 31 32 30 29 30 30 30 30 30 32 35 39 42 43 44 45 49 54 58 59 60 62 63 65 68 68 65 61 60 61 61 59 54 52 55 61 64 65 64 64 64 62 57 54 56 57 57 58 59 61 65 67 70 74 77 80 84 85 87 88 89 91 90 86 82 79 76 75 75 74 75 76 77 78 78 76 72 67 61 57 55 52 48 44 39 35 32 31 31 31 30 30 29
Wind_Speed
86 86 86 86 85 84 82 81 81 81 81 83 86 88 90 90 88 88 89 87 83 80 80 81 83 85 86 87 86 84 83 82 81 81 81 81 80 80 81 82 83 83 83 83 84 85 86 87 87 87 87 87 87 88 88 88 88 88 88 89 90 90 90 90 90 91 91 91 92 92 92 91 89 86 85 83 80 78 75 74 72 70 68 66 63 59 53 48 44 42 41 39 35 32 31 29 28
90 89 89 88 87 86 85 84 84 83 83 86 90 92 92 91 92 92 89 87 83 81 83 85 85 87 86 87 88 87 86 84 83 83 84 83 83 82 83 84 85 85 86 86 87 88 89 90 90 90 90 90 90 90 90 90 90 90 91 91 92 92 92 92 92 92 92 92 91 90 90 89 87 84 82 80 77 75 73 72 70 69 66 63 60 55 49 44 41 40 39 37 33 31 30 28 27
93 92 91 90 90 88 87 86 86 86 86 89 94 95 94 94 96 94 90 86 83 82 85 88 89 89 87 87 89 90 89 86 86 86 86 85 85 85 85 86 87 88 89 89 90 91 92 92 92 92 93 92 92 91 92 92 92 92 92 93 93 93 93 93 92 92 91 90 89 88 86 86 84 82 80 77 75 73 71 70 69 67 64 61 57 51 45 41 39 38 36 34 31 29 27 25 26
96 95 94 93 93 91 90 89 89 89 89 94 98 97 97 98 97 94 91 87 84 84 87 91 92 91 88 88 90 91 90 88 88 88 88 87 87 87 87 88 89 90 92 92 93 94 94 94 94 94 94 94 93 93 93 93 93 93 93 93 93 92 92 91 91 90 88 87 86 85 83 82 81 79 78 75 73 71 70 69 67 64 62 57 53 47 41 39 38 36 34 31 28 26 25 24 26
98 98 97 96 95 93 92 92 92 92 93 98 100 99 100 102 98 94 92 90 88 85 89 95 96 92 89 89 91 92 92 91 90 90 90 90 90 90 91 91 92 93 94 95 95 95 96 96 95 95 94 94 94 93 93 92 92 92 92 92 91 91 90 89 88 87 86 85 83 82 80 79 78 77 76 73 71 69 68 67 65 62 59 54 49 43 39 37 36 35 32 28 25 24 24 25 27
100 100 99 98 97 96 95 94 94 94 97 100 102 102 103 104 99 94 92 91 90 88 93 99 96 91 90 91 92 94 93 92 92 93 93 93 92 93 93 94 94 95 95 95 95 95 95 95 95 95 94 94 93 93 92 91 91 90 90 89 89 88 87 86 86 85 83 82 81 79 78 77 76 75 74 72 69 67 66 65 62 59 55 50 45 40 37 35 35 33 28 24 23 24 25 26 27
102 102 101 101 99 98 97 96 96 97 99 102 104 105 106 106 100 96 94 93 93 93 97 100 95 93 93 93 94 95 94 93 94 96 96 95 94 95 95 95 95 95 95 95 95 94 94 95 95 94 94 93 92 92 91 90 90 89 88 87 86 86 85 84 83 82 81 79 78 77 76 75 74 73 72 70 67 65 63 62 59 56 51 46 41 37 34 33 32 28 25 22 23 24 24 25 27
104 103 103 102 101 100 99 98 98 99 101 104 106 107 109 107 101 98 96 96 97 98 100 99 95 93 94 96 96 96 96 96 97 97 97 96 96 96 96 96 95 94 94 94 94 94 94 94 94 93 92 91 91 90 89 89 89 88 87 85 84 83 82 81 81 79 78 77 76 75 74 74 73 71 69 67 65 62 61 59 56 51 47 42 38 34 32 31 28 25 22 22 23 23 24 24 27
105 104 104 104 103 101 100 100 100 100 102 105 108 110 111 109 103 100 99 101 102 101 102 99 94 93 96 98 97 97 97 98 97 96 96 96 96 97 96 95 94 93 93 93 94 94 93 93 92 91 90 90 89 88 88 87 87 86 85 83 82 81 80 79 78 77 76 75 74 73 72 72 71 69 66 64 62 59 58 55 51 47 43 39 35 31 29 28 25 23 21 21 22 23 24 24 26
105 105 105 105 104 102 102 101 101 102 103 106 109 112 113 110 104 101 102 103 104 103 103 100 95 96 98 99 98 98 99 98 97 96 97 97 97 97 96 94 93 92 92 92 93 93 92 92 91 89 89 88 88 87 87 86 84 84 83 82 80 79 78 77 76 76 75 74 73 72 71 71 69 66 62 60 58 56 54 51 47 44 40 37 32 29 27 26 23 22 21 21 22 23 25 26 27
105 105 105 105 104 103 103 103 102 103 104 107 110 114 113 108 104 103 105 106 106 106 104 100 98 98 98 98 100 101 99 98 98 97 98 97 96 95 95 94 93 93 93 92 92 91 91 90 89 88 88 87 87 86 85 84 83 82 81 80 79 77 76 75 75 74 74 73 72 70 70 68 66 63 59 57 56 52 49 47 44 41 38 34 29 27 25 24 23 22 22 21 21 23 26 27 27
105 105 105 104 104 104 103 103 103 103 104 107 111 113 111 106 104 105 107 110 110 107 102 100 100 99 98 98 100 101 99 97 97 97 97 95 94 94 95 95 94 93 92 91 90 89 89 89 89 88 87 86 85 84 83 82 81 80 80 79 77 76 75 75 74 73 73 72 70 69 67 64 62 60 57 55 52 48 46 45 42 38 35 31 27 26 24 23 23 23 22 21 22 24 26 27 25
105 106 105 104 104 104 103 102 102 102 104 108 111 113 111 107 105 104 107 113 112 106 101 100 99 99 98 99 100 99 97 96 97 98 97 96 95 95 94 94 93 92 91 91 90 89 89 88 88 87 85 84 83 82 81 80 79 79 78 77 76 75 75 74 73 72 71 70 69 67 64 61 60 58 55 52 49 46 45 43 39 36 33 29 26 25 24 23 24 23 22 22 23 24 26 26 24
106 106 105 104 104 103 102 102 102 103 105 109 112 113 110 106 104 103 107 113 111 105 101 99 98 98 98 98 97 96 96 98 99 99 97 95 94 93 92 92 91 91 90 90 89 88 88 87 86 86 84 83 82 81 80 79 78 77 77 76 76 75 74 73 72 71 70 68 66 64 62 59 58 56 53 50 47 47 45 41 37 35 32 29 27 25 25 25 25 24 24 25 25 25 26 24 22
107 107 106 104 103 103 102 102 103 104 106 110 114 113 108 104 103 103 105 110 109 105 101 99 98 97 96 96 94 94 97 99 99 97 95 94 93 92 91 91 91 90 89 88 87 87 86 85 85 84 83 82 81 80 79 79 78 77 76 75 75 74 73 72 70 69 68 66 65 63 61 58 56 53 51 47 46 45 42 39 36 33 32 31 29 27 27 26 26 25 26 26 25 25 26 22 21
108 108 106 104 103 102 102 104 105 106 109 112 115 114 108 103 102 101 102 106 108 107 103 100 97 96 97 96 93 95 98 98 96 94 94 93 92 91 90 90 89 88 88 88 87 86 85 84 83 83 82 81 80 80 79 78 77 76 75 74 74 73 72 71 69 67 66 64 63 62 60 57 54 49 46 43 41 40 38 36 35 33 33 33 30 29 29 29 28 28 28 26 24 26 25 21 21
109 108 106 104 103 102 104 106 107 109 113 115 115 113 107 103 100 98 98 102 107 108 104 100 98 96 97 96 93 95 96 95 94 93 93 92 91 90 90 89 88 87 87 87 86 85 84 83 82 82 81 80 79 78 77 77 76 75 74 73 72 71 70 69 67 65 64 62 61 60 57 55 52 46 41 39 36 34 34 34 34 33 32 31 31 30 31 31 30 29 26 24 24 25 23 20 20
109 108 106 104 103 103 106 108 110 113 115 115 114 111 106 102 99 97 97 100 104 106 105 102 99 98 98 96 95 94 94 94 93 92 90 89 89 89 89 88 87 87 86 85 84 84 83 82 81 80 79 79 78 77 76 75 75 74 73 72 70 69 68 66 64 63 61 60 59 57 54 52 49 43 39 37 34 32 33 33 32 31 29 29 30 30 30 29 28 25 23 22 24 24 21 19 21
108 107 105 104 104 105 108 110 112 114 114 112 110 107 104 101 99 97 97 101 105 106 105 101 98 99 99 97 94 92 91 93 92 90 88 88 88 89 88 87 86 86 85 83 82 82 81 81 80 79 77 77 76 75 74 74 73 73 72 70 68 67 65 63 62 61 59 58 56 53 49 47 44 40 38 37 35 33 32 30 28 27 26 25 26 25 25 24 23 21 21 22 23 21 18 19 21
106 105 103 103 105 106 108 112 112 112 110 107 105 103 101 101 100 98 98 102 106 104 100 97 96 97 97 95 91 90 91 92 92 90 88 87 87 87 86 85 84 84 83 82 80 80 79 79 79 78 76 75 74 74 73 73 72 71 70 68 66 65 63 61 59 58 57 55 53 49 44 40 38 37 37 37 36 34 31 26 23 21 20 19 19 19 19 20 20 20 21 21 19 17 17 19 21
105 103 101 103 106 105 108 111 109 106 104 100 99 98 97 99 100 100 98 100 104 103 96 92 92 93 92 90 90 92 92 91 89 87 85 84 83 83 83 82 82 82 83 81 79 78 78 78 78 77 75 73 72 72 72 71 70 69 68 66 64 63 61 59 57 55 54 52 49 46 40 37 36 36 35 35 35 32 27 20 17 15 15 14 15 16 17 18 19 20 19 18 16 15 16 19 21
101 100 100 102 103 103 106 106 102 99 97 95 95 96 97 99 101 101 97 97 100 98 91 88 86 86 87 89 92 92 89 86 83 83 83 82 81 81 80 80 79 80 81 79 77 77 77 76 76 75 73 71 71 70 70 69 68 67 66 64 62 60 58 56 54 51 50 48 47 44 41 38 36 35 35 32 29 26 21 17 17 15 13 13 14 16 17 17 18 17 16 15 15 15 16 18 21
96 96 98 99 99 101 101 98 96 94 93 95 97 98 97 97 97 94 92 95 96 93 89 86 83 82 87 92 92 87 83 81 81 81 81 80 80 79 78 77 77 77 78 77 76 74 75 75 74 73 71 70 69 68 67 67 66 64 62 61 59 58 56 53 50 48 46 45 44 43 41 38 36 34 31 27 25 23 21 19 20 18 15 14 14 15 16 15 14 14 14 14 14 15 16 18 21
91 93 95 95 95 96 95 92 91 90 92 97 98 94 91 91 92 91 92 95 94 92 89 85 81 81 86 90 88 82 80 79 79 78 78 78 77 77 75 75 75 75 75 75 74 73 73 73 72 70 68 67 66 66 65 64 62 60 59 58 56 55 53 50 47 44 43 43 42 41 39 38 35 30 24 22 23 25 24 22 22 21 18 16 14 14 16 16 14 14 15 15 14 15 15 18 21
87 90 91 91 91 92 90 87 86 88 92 96 95 90 88 90 91 91 91 91 89 89 86 82 80 79 81 84 83 79 77 76 76 76 76 76 75 74 73 73 73 72 72 72 71 71 70 70 69 67 65 63 63 63 63 61 58 56 55 54 52 51 49 46 44 42 40 40 39 38 36 35 32 25 21 22 25 27 26 24 22 21 19 18 17 17 16 16 16 16 17 17 16 16 16 18 20
85 86 86 87 87 86 85 83 84 89 91 91 89 87 86 88 88 87 87 86 86 88 84 80 78 76 76 78 80 78 75 73 72 73 73 73 72 71 71 71 70 70 69 68 68 67 67 67 66 65 62 60 59 59 59 58 55 53 51 50 49 48 45 43 41 39 38 37 37 35 32 30 27 25 24 25 26 28 27 25 24 23 22 21 22 22 19 16 17 18 19 19 18 17 17 18 20
79 80 81 83 81 81 82 82 84 87 87 86 85 84 84 85 84 81 82 84 85 83 81 78 74 73 72 74 77 75 72 70 69 70 71 70 69 69 69 68 67 66 66 65 64 64 64 63 62 61 59 57 56 55 54 54 52 49 47 47 46 44 41 40 39 38 36 35 34 32 29 27 27 28 27 26 27 29 28 26 26 26 24 23 24 25 22 19 21 20 19 19 17 16 17 18 19
72 73 76 77 76 77 78 79 80 81 81 81 80 79 79 80 78 76 80 84 81 74 74 77 73 70 69 70 73 71 68 67 67 68 68 67 66 65 65 64 64 63 62 61 61 60 60 59 58 57 56 54 52 51 50 49 48 46 44 44 43 40 39 38 37 36 34 32 31 31 29 28 31 31 28 28 30 31 29 27 29 28 24 22 23 25 22 21 23 20 18 18 18 18 18 18 19
66 69 70 70 71 71 72 73 75 74 75 76 73 73 74 74 73 73 78 81 74 66 69 76 72 65 63 65 68 68 66 64 64 64 64 62 62 62 61 61 60 60 59 58 57 57 57 56 55 53 52 50 49 47 45 44 44 43 42 41 39 37 36 36 37 35 32 31 31 31 30 31 34 33 30 30 31 32 30 29 30 28 25 22 23 23 22 23 24 21 20 19 19 20 19 18 19
59 62 62 63 63 63 65 68 68 67 68 68 67 68 68 69 69 69 73 74 66 61 65 71 67 60 59 60 63 65 63 61 60 60 59 58 58 58 57 56 56 56 55 55 54 54 53 52 51 49 47 46 45 43 42 41 41 40 39 38 36 35 35 35 36 34 32 32 32 31 31 34 36 35 32 32 32 32 30 29 29 28 27 25 23 21 20 23 24 23 23 22 20 20 20 19 18
53 54 55 56 56 56 60 62 61 59 60 61 61 61 62 64 64 64 66 64 57 56 60 64 63 58 55 55 58 60 59 58 56 56 55 54 55 54 52 51 52 52 52 51 51 50 50 48 47 45 43 42 41 40 39 39 38 38 37 36 34 34 34 35 35 34 33 34 33 32 33 36 38 36 34 34 33 32 30 29 28 26 27 28 27 24 21 22 24 26 28 25 22 21 20 19 18
46 47 48 50 50 51 55 55 53 53 54 55 55 55 57 59 58 58 59 55 50 52 57 59 58 55 51 51 54 55 55 54 52 51 51 50 51 50 47 47 49 49 48 48 48 47 46 45 43 42 41 40 39 38 37 36 36 36 35 35 33 33 33 34 34 34 34 35 34 34 35 37 40 38 36 36 35 34 31 28 26 25 26 29 31 29 26 26 27 29 31 26 22 22 21 19 17
40 42 42 43 44 45 48 46 45 48 49 49 49 49 52 54 53 53 53 49 45 49 54 54 54 52 48 48 49 49 50 50 48 47 46 46 46 46 43 44 45 45 45 45 44 43 42 41 40 40 39 38 37 36 35 35 35 36 35 34 33 32 32 33 34 34 35 36 35 35 36 38 42 40 37 38 38 36 33 28 26 26 28 30 33 34 32 32 31 31 31 26 25 25 23 20 17
35 34 34 35 36 40 43 41 40 43 45 43 42 45 50 50 48 48 47 43 41 43 48 51 51 47 44 44 45 45 46 45 44 43 42 41 41 42 41 40 42 42 42 42 41 41 40 39 39 38 37 36 35 35 35 35 35 35 35 34 33 32 32 32 33 35 36 37 37 36 36 39 44 42 39 40 41 38 35 33 29 26 28 30 33 35 35 34 32 32 31 28 28 29 26 23 19
29 29 30 31 34 37 40 39 36 37 40 39 38 42 48 46 41 42 42 39 36 37 42 47 47 45 43 42 42 43 43 41 40 39 38 37 38 40 39 38 40 41 40 40 40 39 39 39 38 37 36 35 35 35 35 35 35 34 34 34 33 32 32 32 33 35 37 38 38 37 38 40 45 45 42 42 43 41 38 37 34 31 30 31 31 32 33 33 32 34 34 31 33 33 28 25 23
28 30 31 32 33 34 35 34 31 30 31 33 34 38 43 42 38 37 37 35 33 34 39 43 45 44 42 41 41 42 41 39 38 36 36 36 37 40 40 39 39 40 40 40 40 39 39 38 37 36 36 35 35 35 35 35 35 34 34 34 33 33 33 33 33 35 37 39 39 38 39 41 44 46 46 45 45 43 41 40 39 37 36 37 35 30 31 35 35 36 36 34 36 36 30 27 27
31 30 30 30 31 34 35 32 31 30 28 27 31 34 39 41 39 37 36 34 31 33 38 42 44 44 41 41 41 41 40 39 38 35 35 36 37 39 42 41 38 38 40 40 39 40 39 38 38 37 36 36 35 35 35 35 35 34 34 34 34 33 33 33 34 35 37 39 40 40 40 42 43 45 48 48 47 45 44 43 42 40 38 41 41 38 35 36 36 38 39 39 39 39 36 33 32
34 33 32 30 32 36 37 34 34 33 29 27 29 33 40 44 45 43 39 35 32 32 37 43 46 44 42 42 42 40 40 41 38 35 35 35 37 39 43 44 38 36 39 40 40 40 39 39 39 38 37 36 35 35 35 35 35 35 35 35 34 34 34 34 34 36 37 39 40 41 41 42 43 45 47 49 49 49 48 47 46 43 39 40 45 47 44 40 38 38 41 43 43 42 40 37 35
36 36 36 35 36 38 39 38 35 33 31 31 31 36 42 46 48 47 43 39 36 34 36 42 48 47 45 44 42 40 41 42 39 36 35 35 37 39 44 46 39 36 39 40 40 40 40 40 40 39 38 37 36 35 35 35 35 35 35 35 35 34 35 35 35 36 38 39 40 41 42 42 43 45 47 48 50 51 52 52 51 47 42 40 44 49 50 47 45 43 44 46 45 43 41 38 36
39 38 37 38 40 41 42 40 36 34 34 34 37 42 44 44 47 49 48 45 41 37 36 40 46 50 50 46 43 42 42 42 40 38 36 35 36 39 44 46 41 37 39 40 40 40 40 40 40 39 39 38 37 36 35 35 36 36 36 36 36 35 35 36 37 37 38 40 41 41 42 43 43 45 46 48 50 52 54 56 55 52 47 43 43 46 50 51 50 49 48 48 46 44 43 40 38
43 42 41 42 43 43 44 42 38 38 37 38 43 44 42 43 47 50 51 49 46 43 39 38 44 51 51 48 45 45 44 43 42 39 37 36 37 40 44 45 42 39 39 39 40 40 40 41 40 40 39 38 38 37 36 36 36 37 37 37 37 37 36 37 38 39 39 40 41 42 43 43 44 45 46 47 49 51 54 57 57 55 52 49 47 46 48 50 51 51 49 47 47 47 46 44 41
46 46 46 46 46 46 46 44 42 41 41 44 48 44 41 45 50 51 51 50 48 47 43 40 44 50 51 49 47 46 45 44 42 40 38 37 38 41 44 45 43 41 40 39 40 40 41 41 41 41 41 40 39 38 37 37 37 37 38 38 38 38 37 38 39 40 41 41 42 43 43 44 44 46 46 47 48 50 52 56 58 57 55 52 51 50 49 49 50 51 50 48 48 49 48 46 44
49 50 51 51 50 50 50 48 45 44 45 48 50 45 43 48 53 53 52 51 50 50 48 45 46 49 50 49 47 47 46 45 44 41 39 38 39 42 44 45 44 43 42 41 41 41 41 42 43 43 43 42 40 40 39 39 38 38 39 39 39 39 39 39 39 40 41 42 43 44 44 45 45 46 47 48 49 49 51 53 56 56 55 54 54 53 52 51 50 50 51 51 51 50 49 47 46
51 53 54 54 54 55 54 51 49 48 48 49 50 49 47 50 55 56 53 53 53 51 51 51 49 49 50 50 49 49 48 47 46 43 40 40 41 43 44 46 45 44 43 43 42 41 42 42 44 44 44 44 42 42 42 41 41 40 40 40 41 41 40 40 40 41 42 43 44 45 46 46 47 47 48 48 49 50 51 52 53 54 54 53 55 55 55 54 52 51 52 53 53 51 49 48 47
51 53 55 55 56 57 56 54 54 53 50 49 53 55 51 51 56 57 55 54 54 52 53 54 53 51 51 51 51 52 51 49 48 46 43 42 43 44 46 47 46 45 45 45 43 42 42 43 44 45 45 45 45 44 44 44 43 42 42 42 42 42 42 42 42 42 43 43 44 45 47 47 48 49 49 49 50 50 51 52 53 53 53 53 54 56 57 57 55 53 52 54 55 53 51 50 49
53 54 54 56 56 57 57 56 57 56 53 53 58 58 52 51 56 59 58 57 55 53 52 54 55 54 55 55 54 54 53 52 51 49 47 45 45 46 47 48 47 47 46 46 45 44 43 44 45 45 46 46 46 46 46 46 46 45 44 44 44 44 44 44 44 44 44 45 46 46 47 48 49 50 51 51 51 52 52 53 53 54 54 53 53 55 57 58 58 57 55 55 57 57 55 54 52
53 55 55 56 57 58 57 57 58 56 55 59 62 60 54 51 56 62 61 59 57 56 55 56 55 55 58 58 57 56 54 54 54 53 51 50 48 48 49 50 49 48 47 47 47 45 44 45 46 46 46 47 48 47 48 48 48 48 47 47 47 46 46 47 47 47 47 47 48 48 49 49 50 51 52 52 53 53 54 54 55 55 55 55 55 54 56 58 59 60 58 57 57 59 59 58 57
54 56 56 56 58 59 58 58 59 57 57 61 62 61 56 51 55 64 64 61 60 60 59 59 57 56 58 60 60 59 57 56 55 55 55 54 52 51 52 52 51 50 50 49 48 47 46 47 48 48 48 49 49 49 49 50 50 50 50 50 50 49 49 49 49 50 49 49 50 50 51 51 52 52 53 53 54 55 55 56 56 57 57 57 57 56 56 57 58 60 61 60 59 59 60 61 61
55 56 56 57 59 60 60 60 60 58 59 63 62 60 58 54 56 63 65 63 62 62 62 62 60 59 59 61 62 62 61 60 57 57 57 57 56 55 55 55 53 53 53 52 51 50 49 49 49 50 50 50 51 51 50 51 51 52 52 52 52 52 52 52 52 52 52 52 52 53 53 53 54 54 55 55 56 56 57 57 58 58 59 59 59 59 58 58 58 60 61 62 61 61 60 61 62
57 57 58 59 60 61 61 62 61 60 61 63 63 61 58 57 59 63 65 65 63 63 64 64 64 63 62 61 62 63 64 64 62 59 59 59 58 58 58 58 57 56 57 56 55 54 52 51 52 52 51 52 53 53 52 52 52 53 53 54 53 54 55 55 55 55 54 54 55 55 55 55 55 56 57 57 58 58 58 59 59 60 60 61 61 61 61 60 60 60 61 62 63 63 62 62 63
60 61 62 61 63 64 64 64 63 63 62 61 62 62 59 59 61 62 65 66 65 66 67 66 66 65 64 63 63 64 65 66 66 63 60 60 60 61 61 61 60 60 60 60 59 58 56 55 55 55 54 54 56 56 55 55 55 55 56 56 55 55 56 57 57 57 57 57 57 57 57 57 57 58 58 59 60 60 60 61 61 61 62 62 63 63 64 63 62 62 63 63 63 64 64 63 64
64 65 65 65 68 69 68 68 67 66 64 61 63 64 61 61 62 62 65 67 67 68 69 69 68 66 66 65 64 64 66 67 68 66 63 61 61 62 63 64 64 63 63 63 62 61 60 59 58 58 57 58 59 59 59 58 58 58 58 58 57 57 57 58 58 59 59 60 59 59 59 58 59 59 60 61 61 62 62 62 63 63 64 64 65 65 65 66 65 65 65 65 65 65 65 65 66
68 69 69 70 72 73 72 71 71 70 67 64 66 67 64 63 63 63 66 69 70 69 69 71 71 69 68 68 65 64 67 69 68 67 66 64 63 63 64 66 66 66 66 65 64 64 63 63 62 62 61 61 62 62 62 61 61 61 61 60 60 60 59 59 59 59 60 61 61 61 61 60 60 60 61 62 62 63 63 64 64 65 66 66 67 67 67 67 68 68 68 68 68 67 67 67 67
68 70 71 73 75 75 75 74 73 73 72 69 69 71 69 67 65 66 70 73 73 71 71 73 74 72 70 68 66 65 67 70 70 68 66 65 65 65 65 66 67 68 68 67 66 66 66 66 65 65 64 64 65 65 65 64 64 64 64 63 63 63 63 63 62 62 62 62 62 62 62 63 63 62 62 63 63 63 64 65 66 66 67 68 68 69 69 69 69 70 70 70 70 70 69 69 69
67 69 71 73 75 75 76 76 75 75 75 72 72 74 72 70 69 71 75 77 76 74 74 75 75 75 74 72 69 67 68 70 71 69 67 66 66 66 66 66 67 69 69 68 68 67 68 68 67 66 66 66 67 68 68 67 66 66 66 66 66 66 66 66 66 65 65 64 64 63 64 64 65 65 65 65 65 65 65 65 66 67 68 68 69 70 70 70 71 72 72 73 73 72 72 72 71
65 66 67 70 72 73 74 75 76 76 75 74 73 73 72 71 73 76 78 80 79 78 78 78 77 77 77 78 76 72 71 72 72 72 71 68 67 67 67 66 67 69 69 69 69 69 70 70 69 68 68 68 68 69 70 69 69 69 69 69 69 69 69 70 69 69 68 68 67 66 66 66 66 67 67 67 67 67 67 67 68 68 68 69 69 70 71 71 72 73 74 74 75 75 74 74 74
62 63 63 64 67 70 72 73 74 75 75 74 73 71 69 71 75 78 80 80 80 80 80 81 81 80 80 80 80 79 78 76 75 75 75 74 71 69 68 68 68 69 70 70 70 70 71 70 70 70 70 69 70 71 72 71 71 71 71 72 72 72 72 73 72 72 71 71 70 69 69 68 68 68 69 69 69 69 69 70 70 70 70 70 70 71 71 72 73 74 75 76 76 76 76 76 76
61 63 63 62 64 67 70 69 70 73 73 72 71 68 65 68 74 78 79 78 78 79 81 82 82 82 82 82 82 83 83 81 80 80 80 80 78 74 72 71 71 71 71 71 71 72 72 71 70 70 71 70 71 72 72 72 72 72 73 73 73 74 74 74 74 74 74 74 73 72 72 71 71 71 71 71 71 71 71 71 72 72 72 72 72 73 73 73 74 75 76 77 77 78 78 78 78
Wind_Direction
260 260 260 260 260 261 262 262 263 264 265 266 267 267 266 266 266 266 267 269 271 273 274 274 274 275 276 277 278 278 278 279 280 280 281 281 282 283 284 285 286 286 286 287 288 289 289 290 291 291 292 292 293 294 294 295 295 296 296 296 296 297 297 298 298 299 300 300 301 301 302 302 302 303 303 303 304 304 304 303 302 302 301 300 299 300 300 299 297 297 297 294 289 286 288 289 290
261 261 261 261 261 262 262 263 263 264 265 267 267 266 266 266 266 265 267 269 272 274 275 275 274 274 275 277 278 277 277 278 279 280 281 281 282 283 283 284 285 285 286 287 287 288 289 290 290 291 291 291 292 293 293 294 294 295 295 295 295 296 296 297 297 298 299 299 300 300 300 301 301 302 302 302 303 303 302 301 301 300 299 299 298 299 298 297 296 297 296 291 287 286 287 287 287
262 262 262 263 263 263 263 264 264 264 265 267 267 266 266 266 266 266 268 270 271 272 273 274 273 273 274 276 276 277 278 279 279 280 280 281 281 282 283 283 284 285 286 286 287 288 288 289 289 290 290 291 291 292 292 293 293 294 294 294 294 295 295 296 296 297 298 298 299 299 299 300 300 301 301 301 302 301 301 300 299 298 298 298 297 297 297 296 295 296 294 289 287 287 285 283 284
262 262 263 263 263 264 264 265 265 265 266 267 266 266 266 266 266 268 269 270 270 271 273 272 271 271 273 275 276 277 278 279 279 279 279 280 281 281 282 283 284 285 285 286 286 287 287 288 288 289 290 290 291 291 291 292 292 293 293 293 294 294 295 295 296 296 297 297 298 298 298 299 299 300 300 300 300 300 299 298 297 297 296 296 296 296 295 294 294 294 292 288 287 285 283 282 282
262 262 263 263 264 264 265 265 265 266 266 267 267 267 267 267 267 268 269 270 270 271 272 271 270 272 274 275 276 277 277 278 278 279 279 280 280 281 282 282 283 284 284 285 285 286 286 287 288 288 289 289 290 290 291 291 291 292 292 293 293 294 294 295 295 296 296 297 297 297 298 298 298 299 299 299 299 298 297 296 296 295 295 295 294 294 294 293 293 291 289 286 284 281 282 283 282
262 263 263 263 264 264 265 266 266 267 267 267 267 268 268 268 268 269 270 271 272 272 271 271 272 274 275 275 276 276 277 278 279 279 279 279 280 281 282 283 283 283 284 284 284 285 286 286 287 288 288 289 289 290 290 290 291 291 292 292 293 293 294 294 295 295 296 296 296 296 297 297 297 298 298 298 298 297 295 294 294 294 294 294 293 294 293 293 292 289 287 283 280 281 284 284 282
261 262 263 263 264 264 265 266 266 267 267 267 268 268 268 269 270 271 271 272 272 271 270 271 273 275 276 276 276 277 278 279 279 279 279 280 280 281 282 282 282 283 283 283 284 285 285 286 287 287 288 288 289 289 290 290 290 291 291 292 292 293 293 294 294 294 295 295 295 295 296 296 296 297 297 297 296 295 293 292 292 293 293 293 293 294 293 292 289 286 285 282 280 282 285 283 280
261 261 262 263 263 264 265 265 266 266 267 268 268 268 268 269 270 271 271 271 271 270 270 272 274 276 276 276 276 277 278 278 278 278 279 280 280 281 281 281 282 282 283 284 284 284 285 286 286 287 287 288 288 289 289 290 290 290 291 291 291 292 292 293 293 293 294 294 294 295 295 295 296 296 295 295 294 293 291 291 291 292 292 292 292 293 292 289 285 285 284 281 282 283 283 280 276
260 261 262 262 263 263 264 265 265 266 267 267 268 268 268 268 270 271 272 271 270 270 271 272 274 275 275 275 276 277 278 277 277 278 279 280 280 280 280 281 282 282 283 284 284 284 285 286 286 286 287 287 287 288 288 289 289 290 290 291 291 291 292 292 292 292 293 293 294 294 294 294 295 295 294 293 292 291 290 291 291 291 291 291 291 291 288 283 281 282 281 281 284 283 281 278 274
260 261 261 262 263 263 264 264 265 265 266 267 267 268 268 269 270 271 271 270 270 270 271 272 274 275 275 276 277 277 277 277 277 278 279 280 280 280 280 281 282 283 283 283 284 284 285 285 286 286 286 287 287 288 288 288 289 289 289 290 290 291 291 291 291 292 292 292 293 293 293 293 293 293 292 291 290 290 290 290 290 290 289 289 289 287 283 278 277 278 279 284 286 281 278 276 271
261 261 261 262 262 263 264 264 265 266 266 267 267 267 268 269 270 270 270 269 270 270 272 273 274 275 275 277 277 276 276 276 277 278 279 279 279 280 281 282 282 282 282 283 283 284 285 285 285 285 286 286 287 287 288 288 288 288 289 289 290 290 290 290 290 291 291 292 292 292 292 292 291 291 290 288 288 288 288 289 290 288 287 288 286 282 278 274 273 274 279 286 288 282 276 273 269
261 261 262 262 263 263 264 264 265 266 267 267 267 268 268 269 269 269 270 270 270 271 273 274 274 275 275 276 276 275 276 277 278 278 277 277 279 280 281 282 282 282 282 283 283 283 284 284 285 285 286 286 286 287 287 287 288 288 288 288 289 289 289 289 289 290 290 291 291 291 291 290 289 289 288 287 287 287 286 287 288 286 285 286 283 279 275 272 271 275 280 285 288 282 274 272 267
261 262 262 262 263 264 264 265 266 266 267 267 267 267 268 268 269 270 271 271 271 273 274 274 274 275 275 275 275 276 277 277 277 276 277 279 280 281 281 281 281 282 282 283 283 283 283 284 284 285 285 286 286 286 286 286 287 287 287 288 288 288 288 288 289 289 289 290 289 289 289 288 287 286 286 285 285 285 285 286 285 284 284 282 279 276 273 272 273 276 279 284 287 280 272 270 265
262 262 262 263 264 264 265 265 266 266 266 266 266 267 268 269 270 271 271 272 272 274 274 274 274 274 274 275 276 277 276 276 276 277 279 280 281 280 280 280 281 281 282 282 282 282 283 284 284 284 285 285 285 285 285 286 286 286 286 287 287 287 287 288 288 288 288 288 288 287 287 286 285 284 284 284 284 284 284 284 284 282 280 278 275 272 271 271 274 278 280 285 284 276 270 267 260
262 263 263 264 264 265 265 265 265 265 266 266 266 267 268 270 271 271 273 273 274 274 274 273 274 274 274 275 276 275 275 276 278 279 280 280 279 279 279 280 281 281 281 281 281 282 282 283 283 284 284 284 284 284 285 285 285 285 285 286 286 286 287 287 287 287 287 287 286 285 285 284 283 283 283 283 283 283 282 282 282 278 276 275 272 268 266 269 275 279 281 284 279 272 268 264 255
262 263 263 264 265 265 265 265 265 265 265 266 266 267 269 270 272 273 274 274 274 274 273 274 274 274 274 275 275 274 275 277 278 279 279 279 278 279 279 279 280 280 280 280 281 281 282 282 282 282 283 283 283 284 284 284 285 284 285 285 285 285 286 286 286 286 285 285 284 283 283 282 281 282 282 282 282 281 280 280 278 275 274 273 271 266 264 269 276 278 280 279 271 267 267 259 249
262 263 264 264 265 265 264 264 264 265 265 266 267 269 270 272 273 274 274 273 273 273 273 273 274 274 274 275 274 274 276 278 278 278 278 278 278 278 278 278 279 279 279 280 280 281 280 280 281 281 282 282 282 283 283 283 284 283 284 284 284 285 285 285 285 284 284 283 282 281 281 280 278 279 279 279 279 280 279 278 276 275 274 272 269 265 265 270 273 274 272 268 264 265 265 255 243
262 263 263 264 264 264 264 264 264 265 266 267 269 271 272 273 272 272 272 271 271 271 272 273 274 274 274 274 275 275 277 277 277 276 276 277 277 277 278 278 278 278 278 279 279 280 280 279 280 280 281 281 282 282 282 282 282 282 283 283 283 283 283 284 283 283 282 281 280 279 279 278 277 276 274 273 274 278 279 276 274 273 271 269 267 265 265 267 266 264 261 259 262 265 263 252 239
262 262 263 263 263 263 263 264 264 265 267 269 271 272 272 272 271 270 269 269 270 271 272 274 274 274 274 274 275 275 275 275 274 274 275 276 276 277 277 277 277 278 277 278 278 278 279 279 279 279 280 280 281 281 281 281 281 281 282 282 282 282 282 282 281 280 280 279 278 277 277 276 274 272 271 271 274 278 278 273 269 267 264 263 261 261 260 259 256 255 256 259 264 267 260 246 235
262 262 262 262 262 263 264 264 265 267 268 270 271 271 271 271 270 268 267 268 270 271 273 273 273 273 274 274 273 272 272 272 273 275 276 276 276 276 276 277 277 276 276 276 277 277 277 278 278 279 279 280 280 280 280 280 280 281 281 281 281 280 280 280 279 278 277 277 276 274 274 273 271 270 270 272 275 278 274 267 262 255 250 249 248 248 248 248 249 253 257 262 266 266 256 241 235
261 261 262 262 263 263 264 265 266 268 269 269 269 269 269 268 267 266 267 269 271 272 272 272 272 273 273 271 270 270 271 273 275 276 275 274 274 274 275 275 275 275 276 276 276 276 276 277 278 278 279 279 279 279 279 279 280 280 280 280 280 279 279 278 277 276 276 274 273 269 268 269 269 269 270 271 275 273 264 254 243 235 234 231 232 237 239 243 249 254 259 264 265 262 253 241 236
260 261 261 261 262 262 263 265 266 267 267 267 266 265 265 266 267 268 269 269 270 271 270 270 270 271 270 269 269 271 272 274 274 273 272 272 272 273 273 274 274 274 275 276 276 276 276 276 277 278 278 278 278 278 278 278 278 278 279 279 279 278 277 277 276 275 274 272 269 264 262 266 266 267 268 268 270 262 245 232 222 219 225 228 234 241 243 246 250 254 259 261 260 258 254 244 237
260 260 260 260 261 262 263 264 264 264 265 264 263 263 264 266 268 268 267 266 267 268 268 268 268 268 268 268 270 271 272 272 271 271 272 272 272 272 272 272 273 273 274 275 276 276 276 276 276 277 278 278 277 277 277 277 278 278 279 279 278 277 277 276 275 273 272 269 267 263 261 262 263 266 266 262 256 243 226 220 220 218 224 230 237 245 246 248 250 252 257 261 259 257 253 247 242
259 259 259 260 260 261 261 262 263 263 262 261 262 263 264 264 264 264 264 265 267 268 268 267 266 266 266 269 271 271 270 270 270 271 271 271 271 271 271 271 272 272 273 275 275 275 275 276 276 277 277 277 277 276 276 276 277 277 277 277 277 276 276 275 274 272 270 267 265 262 260 258 260 263 260 251 240 228 218 215 217 217 218 225 234 242 242 244 251 257 262 265 264 260 253 249 245
257 258 258 259 259 260 261 261 261 259 259 261 262 262 262 262 262 263 264 266 267 266 266 265 265 265 266 268 270 269 269 269 270 270 270 270 270 271 270 271 271 272 273 274 274 275 275 275 276 276 276 276 276 276 276 276 276 276 276 276 275 274 274 274 272 270 267 264 262 260 257 255 253 249 248 245 229 218 215 212 215 216 213 220 236 249 246 244 251 258 262 265 264 262 256 249 245
256 257 258 258 258 259 259 258 257 257 258 260 261 261 261 261 262 263 264 264 264 264 265 265 266 265 265 267 268 268 268 269 269 269 268 269 269 270 270 270 271 271 272 273 273 274 274 274 275 275 274 274 274 275 276 276 276 275 275 273 272 273 272 271 269 266 263 260 259 256 253 250 241 231 237 240 223 212 212 213 217 215 213 220 233 243 245 246 252 255 259 263 263 261 257 251 244
256 257 257 257 257 257 256 255 255 257 259 260 260 261 261 261 262 263 263 262 262 264 266 266 265 264 264 265 267 268 268 267 267 267 268 268 269 269 269 270 270 271 271 271 272 272 272 273 273 274 274 273 273 274 275 275 275 274 272 271 271 271 269 268 265 263 260 257 255 251 245 237 228 226 232 233 221 210 212 219 221 216 214 222 229 232 233 240 247 251 256 261 261 258 255 252 244
255 255 255 255 255 255 256 256 256 258 258 259 259 260 261 261 261 262 261 261 263 265 266 265 264 263 264 265 266 267 266 266 266 266 267 268 268 268 268 269 269 269 270 270 270 270 271 271 272 272 273 273 273 273 273 273 273 272 270 269 270 269 266 265 263 260 258 254 251 245 236 225 222 226 228 226 219 210 213 221 222 216 213 221 228 224 223 233 240 244 251 257 259 256 254 252 244
254 254 255 255 256 256 256 256 256 257 258 258 260 260 260 261 261 260 261 263 264 265 265 265 264 263 264 264 265 265 265 265 265 265 266 267 267 267 267 268 268 268 269 269 269 269 270 270 271 271 272 272 272 271 271 270 270 269 268 268 267 265 263 261 260 259 256 251 246 239 231 222 221 229 227 222 220 213 216 221 219 216 213 217 226 225 224 231 237 244 249 251 252 251 250 249 244
255 255 256 256 256 256 256 256 256 257 259 260 260 259 260 260 260 260 262 264 265 265 264 264 264 262 261 262 264 265 264 263 263 264 265 265 265 266 267 267 267 267 268 268 267 267 268 269 269 270 270 270 270 269 268 267 267 266 265 265 263 261 259 257 257 257 253 248 243 235 229 220 219 227 226 222 221 215 214 219 219 220 218 218 223 225 226 231 236 241 243 243 243 242 245 246 244
256 256 256 255 255 255 256 257 258 258 259 259 258 258 259 259 259 260 262 265 266 264 262 262 262 260 259 259 261 262 263 262 262 262 263 264 265 265 266 267 267 267 267 267 266 266 266 267 268 268 268 267 267 267 266 265 264 263 262 260 259 257 256 254 254 253 250 246 241 234 227 218 216 223 224 221 219 212 210 215 219 224 225 226 230 225 220 224 231 236 238 240 242 241 246 249 243
256 255 255 256 255 255 256 257 258 257 256 257 257 258 258 259 260 260 261 263 262 260 260 261 261 259 256 256 258 260 261 262 262 262 263 263 264 265 266 267 267 267 266 265 265 265 265 266 266 266 265 264 264 264 263 262 261 260 259 257 255 253 251 251 250 250 248 245 241 233 226 217 215 220 220 217 214 208 209 214 219 226 228 232 235 227 221 224 227 232 237 240 241 242 248 247 241
257 257 257 258 258 257 256 256 256 256 255 256 258 258 258 259 259 259 260 261 260 260 261 261 260 259 258 256 257 258 259 260 261 262 263 264 265 265 265 265 266 266 264 263 263 264 264 264 263 262 262 262 262 261 259 258 257 257 256 254 253 250 247 246 246 246 245 244 241 234 227 219 217 219 217 214 211 208 208 211 217 227 231 235 234 228 229 234 232 232 237 239 240 243 246 242 236
260 261 259 257 256 254 253 251 251 254 256 255 255 256 257 257 258 260 260 259 258 260 262 261 260 260 258 256 256 256 257 259 261 262 263 264 265 266 264 263 264 263 262 262 262 262 262 261 261 260 261 260 259 258 256 255 254 254 254 253 251 249 246 243 242 243 243 243 241 235 228 223 221 220 217 213 212 211 208 205 210 220 228 234 234 231 233 238 238 236 236 239 240 241 242 239 236
262 259 256 252 251 253 254 252 250 254 258 257 255 256 258 258 258 261 261 258 255 255 260 263 263 260 256 256 257 257 257 258 260 261 263 265 265 265 263 260 259 260 260 261 261 260 260 259 259 259 259 258 257 255 254 253 252 251 252 251 250 247 245 242 240 240 241 242 241 236 230 226 225 222 218 215 214 215 213 207 208 215 220 226 231 233 233 235 238 237 234 236 241 240 239 239 239
260 255 255 256 256 257 258 255 252 251 255 258 257 256 261 262 258 258 261 259 254 251 255 259 262 262 261 259 259 259 260 259 259 261 263 263 263 263 261 257 256 258 259 259 259 260 259 259 259 258 257 255 254 253 253 252 250 250 250 250 249 246 244 242 240 239 240 241 241 238 233 229 228 225 222 219 216 217 218 215 215 219 219 221 224 227 233 235 236 235 230 232 241 243 243 243 243
261 260 260 261 263 262 260 257 252 247 246 252 259 262 267 268 263 257 256 257 256 255 257 259 262 263 264 263 261 261 262 261 259 260 260 260 260 260 259 257 254 255 257 258 258 259 259 259 258 257 255 254 252 252 251 251 250 249 249 249 248 246 244 241 240 239 239 240 241 240 236 232 229 228 227 224 220 219 221 220 220 222 221 220 219 220 226 231 234 235 231 230 237 243 247 248 245
262 262 260 259 261 263 263 261 257 253 250 251 258 264 265 267 266 263 259 258 257 257 260 264 265 265 265 264 263 262 262 261 259 258 258 258 257 256 256 257 254 252 254 256 257 258 259 259 258 256 255 253 251 250 249 249 248 248 248 248 247 246 245 241 239 238 238 238 239 239 239 236 232 231 231 229 226 224 223 221 222 224 224 221 219 219 221 223 228 235 235 232 234 239 245 249 245
259 259 259 259 258 259 262 262 261 261 258 255 255 254 255 259 266 269 268 264 259 254 256 262 266 267 265 264 264 264 262 261 259 257 255 255 254 253 255 256 255 251 252 255 256 258 258 258 257 256 255 253 251 249 248 247 247 246 246 247 247 245 245 243 240 238 237 237 237 237 238 238 236 234 233 233 231 230 227 225 225 227 226 223 221 220 220 221 224 230 235 235 234 234 239 245 245
260 260 259 258 258 258 259 261 263 262 259 256 254 252 253 258 264 268 269 267 264 257 251 254 261 264 264 264 264 263 262 262 261 258 255 252 250 251 254 256 254 252 252 254 255 256 257 257 257 256 255 254 252 249 247 246 246 245 244 245 246 245 243 243 241 239 238 237 237 237 237 237 237 237 235 234 233 232 231 230 230 230 228 225 224 223 222 222 225 229 233 233 230 230 232 237 238
260 261 259 258 258 258 258 259 260 260 259 257 256 254 256 260 261 263 265 267 266 262 255 252 257 261 263 264 263 263 263 262 261 260 257 252 248 249 253 256 256 253 252 253 254 255 256 256 257 257 257 255 254 251 248 245 244 244 244 244 245 245 243 242 242 241 239 238 238 237 237 237 237 237 237 236 235 234 232 233 234 234 232 229 226 226 225 225 227 231 233 231 228 228 231 234 234
260 261 261 260 259 259 260 259 258 257 257 256 256 256 257 260 261 260 262 264 264 264 260 255 256 260 263 264 264 264 264 263 262 260 257 253 250 249 252 256 256 255 254 253 252 253 254 255 257 257 257 256 255 253 250 247 245 244 244 244 245 245 244 243 241 240 240 240 239 238 238 238 238 238 238 237 237 236 234 234 235 237 236 233 229 228 227 226 227 231 232 229 228 230 233 234 233
260 261 261 261 261 261 261 260 259 257 256 255 257 257 255 257 260 259 260 261 262 262 262 259 257 260 263 264 264 264 264 264 262 259 256 253 250 250 252 255 256 256 255 254 253 253 253 253 255 256 256 256 255 255 253 250 247 245 245 245 245 245 245 245 243 242 240 239 239 240 239 239 239 240 240 239 238 238 237 236 237 238 239 236 233 230 228 228 227 229 231 229 228 230 233 232 231
259 260 260 261 262 262 263 262 261 259 257 257 259 258 254 255 258 259 258 259 260 260 262 261 258 258 262 264 264 263 263 262 262 260 256 253 251 250 252 254 256 256 256 255 255 254 254 253 254 254 255 255 255 255 254 253 250 248 246 246 246 246 245 245 245 245 243 240 239 239 239 240 240 241 241 241 241 239 239 238 239 240 240 239 236 233 230 228 228 228 229 230 228 228 230 231 230
260 260 260 261 261 262 263 264 263 262 260 259 259 258 255 255 258 260 259 259 259 260 261 263 262 260 260 261 262 263 262 262 261 260 257 254 253 252 252 254 255 256 256 257 256 255 254 254 254 254 255 255 255 254 255 255 254 251 249 248 247 247 246 245 245 245 245 243 241 240 239 239 239 240 241 242 243 242 241 240 239 240 241 240 239 237 234 231 229 228 227 228 229 228 228 229 229
263 262 262 262 262 262 263 263 263 263 263 261 259 258 256 257 260 261 260 259 260 260 261 263 264 264 262 260 259 260 261 262 262 261 258 255 254 254 254 254 254 255 256 257 257 256 255 255 254 254 255 255 255 254 254 255 255 254 252 251 249 248 247 247 245 244 244 244 243 242 241 240 239 239 240 241 242 243 244 243 241 241 242 242 240 239 238 235 233 232 229 227 227 228 228 229 230
264 264 264 264 264 264 264 263 263 263 263 262 261 260 258 257 260 262 261 260 261 261 259 259 260 262 264 263 261 259 259 260 261 261 260 257 255 254 253 253 253 253 255 256 256 256 255 255 255 255 255 255 255 255 254 254 255 255 254 252 251 250 248 248 247 246 244 244 244 243 242 242 241 240 240 240 240 241 243 244 244 243 243 243 242 241 240 239 237 236 235 231 227 227 228 229 231
263 264 264 264 264 264 264 264 264 263 262 262 262 263 262 259 259 263 263 262 261 261 259 258 258 258 261 263 263 261 260 259 259 260 259 257 255 254 253 253 253 253 253 254 255 255 255 255 255 256 256 256 256 255 255 254 254 255 254 253 252 252 251 250 249 249 247 246 245 244 243 243 242 242 241 241 240 241 241 242 244 244 244 244 244 243 241 240 240 240 239 237 232 228 227 228 231
263 263 263 263 263 263 263 263 263 263 262 262 263 263 264 262 261 263 264 262 261 261 261 260 259 256 257 259 262 262 261 259 257 257 258 258 256 255 254 254 254 254 254 254 255 255 255 255 255 256 256 256 256 256 255 255 255 255 255 255 254 253 253 252 251 250 250 249 248 246 245 244 243 243 243 242 242 242 241 242 242 243 244 245 246 245 244 242 241 241 242 242 240 235 231 229 230
265 264 263 263 263 263 263 262 262 261 261 262 264 264 263 262 261 263 265 264 263 263 262 261 260 258 255 256 259 261 262 261 258 255 256 258 258 257 256 255 255 255 255 255 255 255 255 255 255 255 255 255 256 256 255 255 255 255 256 256 255 254 254 253 253 252 252 251 250 249 248 247 245 244 244 243 243 243 242 242 242 243 243 244 245 246 246 245 243 243 243 243 243 241 238 234 233
266 266 265 265 265 264 263 262 262 261 261 262 264 264 263 263 262 262 264 265 265 264 263 261 260 260 258 256 256 258 260 262 261 258 256 256 258 259 259 258 256 256 256 256 256 256 255 255 255 254 254 255 255 255 255 255 255 255 255 255 255 255 255 254 254 254 253 253 252 251 250 249 248 247 246 245 244 244 243 243 243 243 243 243 244 245 246 246 245 244 244 244 244 243 242 240 238
265 264 265 265 264 263 263 263 262 262 262 262 262 263 263 263 262 263 264 265 264 264 264 263 261 260 260 258 256 257 258 260 261 261 259 257 256 258 259 259 258 257 257 257 257 257 256 256 255 254 254 255 255 255 255 255 255 255 255 255 255 255 254 254 254 254 254 254 253 253 252 252 251 250 249 247 246 245 245 244 244 244 244 244 243 244 245 245 246 246 245 244 244 244 244 242 241
266 265 264 263 262 262 263 263 263 264 263 262 262 262 262 262 263 264 264 264 263 263 264 264 263 261 260 259 258 258 258 258 258 259 260 259 257 257 258 259 259 259 258 258 258 257 257 257 256 255 255 255 256 257 257 256 256 256 255 255 255 255 255 255 254 254 254 253 253 253 253 253 252 252 251 250 249 248 247 246 245 244 244 244 244 244 244 244 245 246 246 246 245 245 244 244 243
266 265 264 263 263 263 263 262 263 263 263 262 262 262 262 261 262 262 263 263 263 263 263 264 265 264 262 261 260 259 260 260 260 258 258 258 258 257 257 258 259 259 259 259 258 258 258 257 257 256 256 256 257 257 257 257 256 257 256 256 256 257 257 256 256 255 254 254 253 253 253 253 253 253 252 251 251 250 250 248 247 246 245 245 245 245 244 244 244 245 246 247 246 245 245 245 244
264 264 264 264 264 264 264 263 262 261 262 261 261 262 262 262 262 261 261 262 262 263 263 263 265 266 266 265 262 260 260 261 261 261 259 258 258 257 257 257 257 258 259 259 258 258 258 257 257 256 256 256 257 257 257 257 257 257 257 257 257 257 257 258 257 256 256 255 254 253 253 253 253 252 252 252 252 251 251 250 250 249 248 247 246 246 245 245 245 245 245 246 246 247 246 245 245
264 264 265 266 266 265 265 265 264 262 262 261 260 261 263 263 262 261 260 261 262 263 263 264 264 265 266 266 265 263 261 260 261 261 260 258 257 257 257 256 256 257 257 258 258 257 257 257 257 257 256 255 255 256 256 257 257 257 257 257 257 258 258 258 258 257 257 256 255 254 254 253 253 253 252 252 252 252 252 251 251 251 251 250 249 248 247 246 246 245 245 245 246 246 246 246 246
267 266 265 266 268 268 267 266 267 266 264 263 261 261 262 263 262 261 261 261 262 263 263 263 263 263 264 265 266 265 264 262 262 262 262 260 257 256 256 256 255 255 256 256 256 256 256 256 257 256 256 256 255 255 256 256 256 256 256 256 257 257 257 257 258 257 257 256 256 255 254 254 253 253 253 252 252 252 252 252 252 252 252 251 251 251 250 249 248 247 246 246 246 246 245 246 246
271 269 267 267 268 270 271 270 270 270 269 267 264 261 260 262 262 261 261 262 262 263 263 263 262 263 263 263 264 265 265 264 263 262 262 262 260 257 255 255 255 255 256 256 256 256 256 256 256 256 256 256 256 256 256 256 256 256 256 256 256 256 256 256 256 256 257 256 256 256 255 254 254 253 253 253 252 252 252 252 253 252 252 252 252 251 251 250 250 249 248 247 247 246 246 245 246